sat.trackr.live / text

‹ back to catalog

SJ-11-05

NORAD 39202 · 2013-035A

PAYLOAD ACTIVE UNKNOWN

§ Identity

Operator
Country
PRC
Launch date
2013-07-15
Launch site
JSC
Launch vehicle
Mass (kg)
RCS (m²)
2.31

External: N2YO · Heavens-Above · Gunter

§ Orbital elements

Epoch: 2026-09-20T04:51:10.935360Z

Period
98.30 min
Inclination
98.2877°
Eccentricity
0.0008903
Mean motion
14.64973062 rev/d
Perigee alt
670.9 km
Apogee alt
683.4 km
Semi-major
7,055.3 km
B*
4.7734e-5
RAAN
88.7027°
Arg perigee
302.5068°
Mean anomaly
57.5274°
Rev number
70,314

§ Raw data

SJ-11-051 39202U 13035A   26263.20220990  .00000206  00000+0  47734-4 0  99972 39202  98.2877  88.7027 0008903 302.5068  57.5274 14.64973062703142

JSON: /api/v1/satellites/39202 · /tle

For live sub-satellite position, see the globe view (requires WebGL).

§ Visibility from observer

Set your observer location to see the next 7 days of passes ≥ 10°. The values pass through the URL so the page stays shareable.

No JS? Fill the form by hand. The geolocation button needs JavaScript.